Location: Kershaw
(34.5481°N, 80.5823°W)
Time: 17:07:12
(UTC+00:00)

Transit 2A - Pass Details

Date: 08 October 2022
Orbit: 598 x 959 km, 66.7° (Epoch: 06 December)

Event Time Altitude Azimuth Distance (km) Brightness Sun altitude
Rises 02:40:36 0° 207° (SSW) 2,961 - -45.2°
Reaches altitude 10° 02:42:57 10° 208° (SSW) 2,013 - -45.6°
Maximum altitude 02:47:26 83° 296° (WNW) 619 - -46.4°
Drops below altitude 10° 02:51:46 10° 25° (NNE) 1,940 - -47.1°
Sets 02:53:59 0° 26° (NNE) 2,844 - -47.5°
